AKDT,Max TemperatureF,Mean TemperatureF,Min TemperatureF,Max Dew PointF,MeanDew PointF,Min DewpointF,Max Humidity, Mean Humidity, Min Humidity, Max Sea Level PressureIn, Mean Sea Level PressureIn, Min Sea Level PressureIn, Max VisibilityMiles, Mean VisibilityMiles, Min VisibilityMiles, Max Wind SpeedMPH, Mean Wind SpeedMPH, Max Gust SpeedMPH,PrecipitationIn, CloudCover, Events, WindDirDegrees
2011-10-1,50,44,39,43,40,37,93,81,69,30.01,29.97,29.93,10,10,10,14,9,22,0.00,4,,94
2011-10-2,48,40,32,39,35,32,100,88,63,30.01,29.96,29.87,10,9,2,10,5,,0.00,1,,290
2011-10-3,51,42,33,36,33,31,96,75,46,29.85,29.61,29.40,10,10,10,17,12,21,0.00,0,,296
2011-10-4,48,42,35,41,34,27,96,77,44,29.62,29.48,29.37,10,10,6,20,12,,0.10,5,Rain,304
2011-10-5,50,46,41,43,41,38,93,84,68,29.74,29.70,29.63,10,10,10,13,8,,0.00,5,,359
2011-10-6,48,47,46,45,44,43,93,89,83,29.78,29.73,29.70,10,10,10,14,9,23,0.03,8,Rain,94
2011-10-7,50,48,46,45,44,43,93,87,82,29.97,29.89,29.78,10,10,7,15,11,33,0.03,7,Rain,101
2011-10-8,48,46,43,43,41,39,97,85,74,29.95,29.69,29.46,10,10,10,15,8,,0.05,6,Rain,319
2011-10-9,51,46,42,45,42,39,100,88,76,29.68,29.62,29.46,10,10,8,13,6,23,0.16,8,Rain,81
2011-10-10,48,46,43,43,40,38,97,82,69,29.66,29.51,29.36,10,10,10,15,8,21,0.03,4,Rain,312
2011-10-11,51,48,43,42,37,34,93,71,54,29.55,29.43,29.36,10,10,8,12,9,,0.17,7,Rain,315
2011-10-12,43,41,39,40,39,37,100,92,87,29.98,29.77,29.56,10,10,7,13,10,17,0.59,8,Rain,311
2011-10-13,46,42,39,42,39,37,100,90,76,30.09,30.06,29.99,10,10,10,10,5,,0.01,8,Rain,310
2011-10-14,46,41,36,40,38,36,100,85,79,30.09,30.03,29.94,10,10,10,16,8,29,0.00,8,Rain,79
2011-10-15,44,42,42,39,38,37,89,85,80,29.95,29.90,29.87,10,9,6,18,14,32,0.29,8,Rain,79
2011-10-16,48,45,42,42,40,38,96,84,76,29.93,29.90,29.87,10,10,10,13,8,23,0.00,8,Rain,88
2011-10-17,46,42,37,41,39,36,100,89,68,29.97,29.87,29.70,10,9,6,15,6,,0.34,8,Rain,305
2011-10-18,48,42,35,45,41,35,100,90,76,29.76,29.65,29.56,10,8,4,20,8,40,0.92,7,Rain,94
2011-10-19,46,40,35,39,37,34,100,86,73,29.91,29.83,29.76,10,10,9,9,6,,0.00,4,,352
2011-10-20,45,43,42,39,38,37,87,82,76,29.95,29.91,29.84,10,10,5,16,8,23,0.00,8,Rain,94
2011-10-21,43,38,33,38,35,32,100,89,65,29.84,29.59,29.50,10,9,2,15,7,22,0.20,6,Rain-Snow,325
2011-10-22,45,38,33,43,38,34,100,93,85,29.62,29.56,29.52,10,9,5,15,10,30,0.37,8,Rain,11
2011-10-23,48,44,43,43,41,39,93,86,80,29.85,29.71,29.62,10,10,10,14,10,30,0.00,8,Rain,98
2011-10-24,46,42,37,43,39,36,100,88,79,30.14,30.02,29.85,10,10,10,17,7,32,0.00,7,Rain,78
2011-10-25,46,43,41,43,40,37,93,87,81,30.13,29.88,29.42,10,8,3,21,16,40,1.16,8,Rain,105
2011-10-26,43,41,39,40,39,37,93,89,81,29.77,29.52,29.37,10,9,6,22,16,38,0.25,8,Rain,110
2011-10-27,43,41,37,40,39,36,100,89,81,29.84,29.75,29.47,10,10,6,16,13,31,0.19,8,Rain,99
2011-10-28,45,41,37,39,37,34,100,84,71,29.49,29.32,29.15,10,10,10,20,11,25,0.01,8,Rain,335
2011-10-29,44,43,42,41,40,39,93,88,81,29.50,29.35,29.26,10,9,3,21,11,34,0.33,8,Rain,92
2011-10-30,43,40,37,40,38,35,100,90,81,29.67,29.42,29.31,10,9,3,16,11,31,0.56,8,Rain,80
2011-10-31,43,40,37,40,36,33,93,86,76,30.08,29.93,29.66,10,9,5,20,8,39,0.38,7,Rain,93